This is the latest recevied weather packets stored in our database for station/object LY3FF-10. If no packets are shown the sender has not sent any weather packets the latest 10 day(s).
| Time | Temp. | Humidity | Pressure | Rain* | Wind** | Luminosity | Snow |
|---|---|---|---|---|---|---|---|
| 1788275010 | 16.11° C | 84% | 991 hPa | - | - | - | - |
| 1788274140 | 16.11° C | 83% | 991 hPa | - | - | - | - |
| 1788273380 | 16.11° C | 83% | 991.1 hPa | - | - | - | - |
| 1788272615 | 16.67° C | 82% | 991.4 hPa | - | - | - | - |
| 1788271754 | 16.67° C | 82% | 991.4 hPa | - | - | - | - |
| 1788270977 | 17.22° C | 81% | 991.4 hPa | - | - | - | - |
| 1788270090 | 17.78° C | 78% | 991.1 hPa | - | - | - | - |
| 1788269195 | 17.78° C | 75% | 990.4 hPa | - | - | - | - |
| 1788268324 | 18.33° C | 75% | 990.4 hPa | - | - | - | - |
| 1788267495 | 18.89° C | 73% | 990.1 hPa | - | - | - | - |
| 1788266604 | 20° C | 71% | 990.6 hPa | - | - | - | - |
| 1788265764 | 21.11° C | 75% | 989.6 hPa | - | - | - | - |
| 1788265015 | 21.67° C | 76% | 989.6 hPa | - | - | - | - |
| 1788264255 | 21.67° C | 76% | 989.7 hPa | - | - | - | - |
| 1788263522 | 21.11° C | 74% | 989.9 hPa | - | - | - | - |
| 1788262710 | 20.56° C | 70% | 989.6 hPa | - | - | - | - |
| 1788261860 | 23.89° C | 64% | 989.5 hPa | - | - | - | - |
| 1788261075 | 23.33° C | 67% | 989.6 hPa | - | - | - | - |
| 1788260254 | 28.89° C | 69% | 989.6 hPa | - | - | - | - |
| 1788259400 | 26.11° C | 70% | 989.7 hPa | - | - | - | - |
| 1788258535 | 25.56° C | 71% | 989.9 hPa | - | - | - | - |
| 1788257710 | 21.67° C | 74% | 990 hPa | - | - | - | - |
| 1788256820 | 24.44° C | 75% | 990.1 hPa | - | - | - | - |
| 1788256005 | 20.56° C | 78% | 990 hPa | - | - | - | - |
| 1788255270 | 19.44° C | 79% | 990.1 hPa | - | - | - | - |
* Rain since midnight (hover to see other rain measurements)
** Current wind speed in m/s (hover to see current wind gust speed)